Weather History for Edinburg, TX

Change the Weather History Date:

Friday, February 10, 2012

  Actual Average (KMFE) Record (KMFE)
Temperature  
Mean Temperature 59 °F 64 °F  
Max Temperature 62 °F 74 °F 96 °F (2013)
Min Temperature 56 °F 53 °F 29 °F (1910)
Degree Days  
Heating Degree Days 6 4  
Month to date heating degree days 49  
Since 1 July heating degree days 476  
Cooling Degree Days 0 3  
Month to date cooling degree days 28  
Year to date cooling degree days 90  
Growing Degree Days 9 (Base 50)    
Moisture  
Dew Point 56 °F    
Average Humidity 89    
Maximum Humidity 94    
Minimum Humidity 79    
Precipitation  
Precipitation 0.01 in 0.03 in 0.98 in (1958)
Month to date precipitation 0.42  
Year to date precipitation 1.47  
Sea Level Pressure  
Sea Level Pressure 30.11 in    
Wind  
Wind Speed 7 mph (NNW)    
Max Wind Speed 16 mph    
Max Gust Speed 18 mph    
Visibility 4 miles    
Events      
T = Trace of Precipitation, MM = Missing Value Source: NWS Daily Summary

Daily Weather History Graph

Daily Weather History Graph

Search for Another Location

Airport:

Trip Planner

Search our weather history database for the weather conditions in past years. The results will help you decide how hot, cold, wet, or windy it might be!

Date:

Astronomy

Feb. 10, 2012 Rise Set
Actual Time 7:12 AM CST 6:21 PM CST
Civil Twilight 6:48 AM CST 6:45 PM CST
Nautical Twilight 6:21 AM CST 7:12 PM CST
Astronomical Twilight 5:53 AM CST 7:39 PM CST
Moon 9:32 PM CST (2/10) 8:46 AM CST (2/10)
Length of Visible Light 11h 56m
Length of Day
11h 09m
Waning Gibbous, 90% of the Moon is Illuminated
Feb 10
Waning Gibbous
Feb 14
Last Quarter
Feb 21
New
Feb 29
First Quarter
Mar 8
Full

Hourly Weather History & Observations

Time (CST) Temp. Dew Point Humidity Pressure Visibility Wind Dir Wind Speed Gust Speed Precip Events Conditions
12:15 AM 57.2 °F 55.2 °F 93% 30.12 in 2.5 mi NNW 4.6 mph - N/A   Overcast
12:35 AM 57.2 °F 55.2 °F 93% 30.10 in 2.0 mi North 4.6 mph - N/A   Overcast
1:15 AM 57.2 °F 55.4 °F 94% 30.10 in 1.5 mi NNW 4.6 mph - N/A   Overcast
1:35 AM 57.2 °F 55.2 °F 93% 30.10 in 1.0 mi NW 5.8 mph - N/A   Overcast
1:55 AM 57.2 °F 55.2 °F 93% 30.09 in 1.0 mi NW 5.8 mph - N/A   Overcast
2:15 AM 57.2 °F 55.4 °F 94% 30.07 in 1.0 mi NNW 6.9 mph - N/A   Overcast
2:35 AM 57.2 °F 55.4 °F 94% 30.07 in 1.5 mi NNW 6.9 mph - N/A   Overcast
2:55 AM 57.2 °F 55.4 °F 94% 30.07 in 2.0 mi NNW 5.8 mph - N/A   Overcast
3:15 AM 57.2 °F 55.4 °F 94% 30.04 in 1.5 mi North 6.9 mph - N/A   Overcast
3:35 AM 57.2 °F 55.4 °F 94% 30.06 in 1.8 mi NNW 4.6 mph - N/A   Overcast
3:55 AM 57.4 °F 55.6 °F 94% 30.07 in 2.5 mi NNW 5.8 mph - N/A   Overcast
4:15 AM 57.4 °F 55.6 °F 94% 30.06 in 2.5 mi North 5.8 mph - N/A   Overcast
4:35 AM 57.4 °F 55.6 °F 94% 30.07 in 3.0 mi NW 4.6 mph - N/A   Overcast
4:55 AM 57.4 °F 55.6 °F 94% 30.07 in 2.5 mi NNW 4.6 mph - N/A   Overcast
5:15 AM 57.4 °F 55.6 °F 94% 30.07 in 3.0 mi Calm Calm - N/A   Overcast
5:35 AM 57.2 °F 55.2 °F 93% 30.07 in 2.5 mi Calm Calm - N/A   Overcast
5:55 AM 56.8 °F 54.9 °F 93% 30.07 in 2.0 mi WNW 3.5 mph - N/A   Overcast
6:15 AM 56.8 °F 54.9 °F 93% 30.08 in 2.0 mi NW 4.6 mph - N/A   Overcast
6:35 AM 57.0 °F 55.0 °F 93% 30.08 in 2.0 mi NW 5.8 mph - N/A   Overcast
6:55 AM 57.4 °F 55.4 °F 93% 30.07 in 2.5 mi NNW 4.6 mph - N/A   Overcast
7:35 AM 57.4 °F 55.4 °F 93% 30.08 in 2.5 mi NNW 9.2 mph - N/A   Overcast
7:55 AM 57.6 °F 55.6 °F 93% 30.09 in 2.0 mi NNW 10.4 mph - N/A   Overcast
8:15 AM 57.6 °F 55.4 °F 92% 30.10 in 2.5 mi NNW 11.5 mph - 0.01 in   Overcast
8:35 AM 57.7 °F 55.4 °F 92% 30.11 in 3.0 mi North 10.4 mph - 0.01 in   Overcast
8:55 AM 58.1 °F 55.4 °F 91% 30.12 in 2.5 mi NNW 9.2 mph - 0.01 in   Overcast
9:15 AM 58.3 °F 55.4 °F 90% 30.12 in 3.0 mi NNW 10.4 mph - N/A   Overcast
9:35 AM 58.8 °F 55.6 °F 89% 30.12 in 4.0 mi NNW 11.5 mph - N/A   Overcast
9:55 AM 59.5 °F 55.9 °F 88% 30.13 in 4.0 mi North 11.5 mph - N/A   Overcast
10:15 AM 60.1 °F 56.1 °F 87% 30.13 in 4.0 mi North 9.2 mph - N/A   Overcast
10:35 AM 60.4 °F 56.1 °F 86% 30.14 in 4.0 mi North 5.8 mph - N/A   Haze
10:55 AM 60.8 °F 56.3 °F 85% 30.14 in 4.0 mi North 8.1 mph - N/A   Haze
11:15 AM 60.8 °F 56.5 °F 86% 30.14 in 4.0 mi North 10.4 mph - N/A   Overcast
11:35 AM 61.5 °F 56.8 °F 85% 30.15 in 5.0 mi NNW 10.4 mph - N/A   Haze
11:55 AM 61.7 °F 56.8 °F 84% 30.15 in 4.0 mi NNW 9.2 mph - N/A   Haze
12:15 PM 61.3 °F 57.0 °F 86% 30.15 in 4.0 mi North 11.5 mph - N/A   Overcast
12:35 PM 61.7 °F 57.2 °F 85% 30.14 in 5.0 mi North 11.5 mph - N/A   Haze
1:15 PM 61.5 °F 56.8 °F 85% 30.14 in 4.0 mi North 16.1 mph - N/A   Overcast
1:35 PM 61.0 °F 56.8 °F 86% 30.14 in 4.0 mi North 11.5 mph 18.4 mph N/A   Overcast
1:55 PM 61.0 °F 56.8 °F 86% 30.14 in 5.0 mi North 9.2 mph - N/A   Overcast
2:15 PM 61.3 °F 56.8 °F 85% 30.14 in 5.0 mi North 8.1 mph - N/A   Haze
2:35 PM 62.1 °F 57.0 °F 84% 30.14 in 5.0 mi North 10.4 mph - N/A   Haze
2:55 PM 62.2 °F 56.8 °F 82% 30.14 in 5.0 mi NNW 11.5 mph - N/A   Haze
3:15 PM 62.2 °F 56.8 °F 82% 30.14 in 5.0 mi NNW 12.7 mph - N/A   Haze
3:35 PM 62.2 °F 56.7 °F 82% 30.13 in 7.0 mi NNW 9.2 mph - N/A   Overcast
3:55 PM 62.6 °F 56.8 °F 81% 30.13 in 7.0 mi North 11.5 mph - N/A   Overcast
4:15 PM 62.6 °F 56.5 °F 80% 30.13 in 7.0 mi NNW 11.5 mph - N/A   Overcast
4:35 PM 62.1 °F 56.5 °F 82% 30.14 in 7.0 mi North 8.1 mph - N/A   Overcast
4:55 PM 62.1 °F 56.7 °F 82% 30.13 in 7.0 mi North 9.2 mph - N/A   Overcast
5:15 PM 62.1 °F 56.5 °F 82% 30.13 in 7.0 mi North 10.4 mph - N/A   Overcast
5:35 PM 62.1 °F 55.9 °F 80% 30.13 in 10.0 mi North 10.4 mph - N/A   Overcast
5:55 PM 62.2 °F 55.8 °F 79% 30.14 in 7.0 mi North 12.7 mph - N/A   Overcast
6:15 PM 62.1 °F 55.4 °F 79% 30.15 in 10.0 mi NNW 10.4 mph - N/A   Overcast
6:35 PM 61.9 °F 55.4 °F 79% 30.16 in 10.0 mi North 5.8 mph - N/A   Overcast
6:55 PM 61.7 °F 55.8 °F 81% 30.17 in 10.0 mi North 4.6 mph - N/A   Overcast
7:35 PM 60.6 °F 55.8 °F 84% 30.18 in 10.0 mi North 3.5 mph - N/A   Mostly Cloudy
8:15 PM 59.0 °F 55.0 °F 87% 30.21 in 10.0 mi WNW 3.5 mph - N/A   Mostly Cloudy
8:35 PM 58.5 °F 54.9 °F 88% 30.22 in 10.0 mi WNW 4.6 mph - N/A   Mostly Cloudy
8:55 PM 57.6 °F 54.1 °F 88% 30.23 in 10.0 mi WNW 4.6 mph - N/A   Scattered Clouds
9:15 PM 57.6 °F 54.1 °F 88% 30.24 in 10.0 mi Calm Calm - N/A   Clear
9:35 PM 57.4 °F 54.0 °F 88% 30.25 in 7.0 mi WNW 3.5 mph - N/A   Mostly Cloudy
9:55 PM 57.2 °F 54.0 °F 89% 30.25 in 7.0 mi WNW 3.5 mph - N/A   Scattered Clouds
10:15 PM 57.2 °F 54.0 °F 89% 30.25 in 7.0 mi NW 4.6 mph - N/A   Clear
10:35 PM 57.2 °F 54.0 °F 89% 30.25 in 7.0 mi WNW 4.6 mph - N/A   Clear
10:55 PM 57.2 °F 53.8 °F 88% 30.26 in 7.0 mi WNW 4.6 mph - N/A   Clear
11:15 PM 57.0 °F 53.6 °F 88% 30.26 in 7.0 mi WNW 5.8 mph - N/A   Clear
11:35 PM 56.8 °F 53.6 °F 89% 30.26 in 7.0 mi WNW 5.8 mph - N/A   Clear
11:55 PM 56.8 °F 53.8 °F 89% 30.26 in 7.0 mi NW 4.6 mph - N/A   Clear